Simultaneous Nadir Overpasses (SNOs) Predictions

Prediction of SNOs between AQUA and NOAA-19 Satellite Orbit:

Table of predicted SNOs for the next 14.0 days since TLE Epoch: 8/10/2019
Index Date (AQUA) Time (AQUA) Lat,Lon (AQUA) SZA (AQUA ) Date (NOAA-19) Time (NOAA-19) Lat,Lon (NOAA-19) SZA (NOAA-19 ) Distance(km) Time Diff (sec)
1 08/11/2019 10:36:26 -80.31, 167.64 113.22 08/11/2019 10:35:32 -80.30, 167.63 113.20 0.57 54
2 08/11/2019 11:25:53 80.31, -24.71 66.79 08/11/2019 11:26:35 80.32, -24.82 66.80 2.59 42
3 08/13/2019 16:10:10 80.31, -95.79 67.44 08/13/2019 16:09:00 80.29, -95.85 67.47 2.11 70
4 08/13/2019 16:59:36 -80.31, 71.85 112.55 08/13/2019 16:59:55 -80.32, 71.90 112.55 1.65 19
5 08/15/2019 22:33:20 80.31, 168.41 68.13 08/15/2019 22:33:23 80.31, 168.50 68.12 1.87 3
6 08/18/2019 04:07:03 -80.31, -95.06 111.17 08/18/2019 04:06:43 -80.30, -95.03 111.18 1.91 20
7 08/18/2019 04:56:34 80.44, 71.35 69.07 08/18/2019 04:57:38 80.48, 75.54 68.67 77.34 64
8 08/20/2019 09:40:46 80.29, 1.77 69.49 08/20/2019 09:40:11 80.30, 1.69 69.53 1.93 35
9 08/20/2019 10:30:13 -80.32, 169.10 110.45 08/20/2019 10:31:06 -80.31, 169.20 110.48 1.88 53
10 08/22/2019 15:14:29 -80.29, 98.27 109.77 08/22/2019 15:13:30 -80.29, 98.32 109.76 1.13 59




NCC Satellite Simultaneous Nadir Overpasses (SNOs) Prediction Service
